This demonstration page uses our WeatherBlox Daily Observations layout. Learn more.

Left ArrowRight Arrow

Hourly Observations for February 24, 2021

Temp ( °F °C ) Dew Point ( °F °C ) Humidity (%) Winds ( mph kmh ) Pressure ( in mb ) Visibility ( mi km ) Precip ( " mm )
12:15 am 00:15 Clear 37 2.8 30 -1.2 75 75 NW 13 20 30.04 1017 10 16 N/A
12:35 am 00:35 Clear 37 2.5 29 -1.5 75 75 NW 12 19 30.04 1017 10 16 N/A
12:55 am 00:55 Clear 36 2.2 29 -1.9 75 75 NNW 9 15 30.05 1018 10 16 N/A
1:15 am 01:15 Clear 35 1.7 28 -2 77 77 NW 9 15 30.07 1018 10 16 N/A
1:35 am 01:35 Clear 35 1.5 28 -2 78 78 NW 13 20 30.08 1019 10 16 N/A
1:55 am 01:55 Clear 35 1.7 27 -2.8 72 72 NNW 13 20 30.08 1019 10 16 N/A
2:15 am 02:15 Clear 35 1.5 26 -3.1 72 72 NNW 9 15 30.08 1019 10 16 N/A
2:35 am 02:35 Clear 34 1 27 -3 75 75 NNW 10 17 30.09 1019 10 16 N/A
2:55 am 02:55 Clear 33 0.6 26 -3.3 75 75 NNW 10 17 30.09 1019 10 16 N/A
3:15 am 03:15 Clear 33 0.3 25 -3.7 75 75 NNW 13 20 30.09 1019 10 16 N/A
3:35 am 03:35 Clear 32 undefined 25 -3.8 76 76 NNW 10 17 30.09 1019 10 16 N/A
3:55 am 03:55 Clear 32 -0.1 25 -4 75 75 NNW 8 13 30.11 1019 10 16 N/A
4:15 am 04:15 Clear 31 -0.7 25 -4.1 78 78 NNW 8 13 30.10 1019 10 16 N/A
4:35 am 04:35 Clear 31 -0.8 24 -4.2 78 78 N 9 15 30.12 1020 10 16 N/A
4:55 am 04:55 Clear 31 -0.8 25 -4 79 79 N 12 19 30.12 1020 10 16 N/A
5:15 am 05:15 Clear 31 -0.5 25 -3.7 79 79 N 12 19 30.13 1020 10 16 N/A
5:35 am 05:35 Clear 31 -0.5 26 -3.5 80 80 N 12 19 30.14 1021 10 16 N/A
5:55 am 05:55 Clear 31 -0.6 26 -3.5 81 81 N 13 20 30.14 1021 10 16 N/A
6:15 am 06:15 Clear 30 -0.9 25 -3.7 82 82 N 12 19 30.15 1021 10 16 N/A
6:35 am 06:35 Clear 30 -0.9 25 -3.8 81 81 N 13 20 30.17 1022 10 16 N/A
6:55 am 06:55 Clear 30 -1 25 -3.8 82 82 N 10 17 30.17 1022 10 16 N/A
7:15 am 07:15 Clear 29 -1.4 25 -4 83 83 NNW 12 19 30.19 1022 10 16 N/A
7:35 am 07:35 Sunny 29 -1.5 25 -4 83 83 N 12 19 30.20 1023 10 16 N/A
7:55 am 07:55 Sunny 30 -1.2 25 -3.8 83 83 N 12 19 30.22 1023 10 16 N/A
8:15 am 08:15 Sunny 30 -1 26 -3.6 83 83 N 9 15 30.23 1024 10 16 N/A
8:35 am 08:35 Sunny 31 -0.6 26 -3.5 81 81 N 9 15 30.23 1024 10 16 N/A
8:55 am 08:55 Sunny 31 -0.3 26 -3.2 81 81 N 9 15 30.26 1025 10 16 N/A
9:15 am 09:15 Sunny 32 undefined 27 -3 80 80 N 8 13 30.27 1025 10 16 N/A
9:35 am 09:35 Sunny 32 0.2 27 -2.9 80 80 N 8 13 30.27 1025 10 16 N/A
9:55 am 09:55 Sunny 33 0.6 27 -2.6 79 79 N 9 15 30.28 1025 10 16 N/A
10:15 am 10:15 Sunny 34 1 28 -2.5 78 78 N 7 11 30.29 1026 10 16 N/A
10:35 am 10:35 Sunny 34 1.1 27 -2.7 76 76 N 7 11 30.30 1026 10 16 N/A
10:55 am 10:55 Sunny 35 1.6 28 -2.1 77 77 N 5 7 30.29 1026 10 16 N/A
11:15 am 11:15 Sunny 35 1.7 27 -2.6 73 73 NNW 5 7 30.29 1026 10 16 N/A
11:35 am 11:35 Sunny 36 2.1 28 -2.5 72 72 NNW 5 7 30.30 1026 10 16 N/A
11:55 am 11:55 Sunny 36 2.3 28 -2.5 71 71 NNW 5 7 30.29 1026 10 16 N/A
12:15 pm 12:15 Sunny 37 2.7 28 -2.5 69 69 NNW 5 7 30.29 1026 10 16 N/A
12:35 pm 12:35 Sunny 38 3.1 28 -2.5 67 67 NNW 3 6 30.29 1026 10 16 N/A
12:55 pm 12:55 Sunny 38 3.3 28 -2.4 67 67 NW 3 6 30.28 1026 10 16 N/A
1:15 pm 13:15 Sunny 38 3.6 28 -2.3 66 66 NNW 3 6 30.28 1025 10 16 N/A
1:35 pm 13:35 Sunny 39 3.9 28 -2.1 65 65 WNW 3 6 30.27 1025 10 16 N/A
1:55 pm 13:55 Sunny 39 4.1 29 -1.9 65 65 WNW 3 6 30.27 1025 10 16 N/A
2:15 pm 14:15 Sunny 39 4.1 28 -2.3 63 63 W 3 6 30.27 1025 10 16 N/A
2:35 pm 14:35 Sunny 39 4 27 -2.7 62 62 N N/A 30.27 1025 10 16 N/A
2:55 pm 14:55 Sunny 40 4.6 28 -2.3 61 61 N N/A 30.25 1024 10 16 N/A
3:15 pm 15:15 Sunny 40 4.6 28 -2.5 60 60 N N/A 30.26 1025 10 16 N/A
3:35 pm 15:35 Sunny 41 4.8 28 -2.3 60 60 N N/A 30.26 1025 10 16 N/A
3:55 pm 15:55 Sunny 41 4.8 28 -2.4 60 60 N N/A 30.27 1025 10 16 N/A
4:15 pm 16:15 Sunny 41 4.8 28 -2.5 60 60 N N/A 30.27 1025 10 16 N/A
4:35 pm 16:35 Sunny 42 5.3 28 -2.2 59 59 ESE 3 6 30.27 1025 10 16 N/A
4:55 pm 16:55 Sunny 41 4.8 29 -1.6 64 64 SSE 5 7 30.27 1025 10 16 N/A
5:15 pm 17:15 Sunny 40 4.7 29 -1.4 65 65 SE 7 11 30.27 1025 10 16 N/A
5:35 pm 17:35 Sunny 39 4 30 -1.1 70 70 SSE 5 7 30.28 1025 10 16 N/A
5:55 pm 17:55 Sunny 38 3.1 29 -1.4 73 73 SE 7 11 30.29 1026 10 16 N/A
6:15 pm 18:15 Sunny 36 2 29 -1.6 77 77 SE 7 11 30.31 1026 10 16 N/A
6:35 pm 18:35 Clear 34 1.1 29 -1.8 81 81 SE 7 11 30.33 1027 10 16 N/A
6:55 pm 18:55 Clear 34 1.1 28 -2 80 80 SSE 6 9 30.34 1027 10 16 N/A
7:15 pm 19:15 Clear 34 1 28 -2.3 79 79 SSE 7 11 30.35 1028 10 16 N/A
7:35 pm 19:35 Clear 33 0.4 27 -2.6 81 81 SSE 5 7 30.36 1028 10 16 N/A
7:55 pm 19:55 Clear 33 0.3 27 -2.7 81 81 S 5 7 30.36 1028 10 16 N/A
8:15 pm 20:15 Clear 32 undefined 26 -3.1 80 80 N N/A 30.38 1029 10 16 N/A
8:35 pm 20:35 Clear 32 -0.1 26 -3.5 78 78 S 5 7 30.39 1029 10 16 N/A
8:55 pm 20:55 Clear 32 0.2 25 -4 74 74 S 3 6 30.39 1029 10 16 N/A
9:15 pm 21:15 Clear 32 0.1 25 -4 74 74 SSW 5 7 30.40 1030 10 16 N/A
9:35 pm 21:35 Clear 32 -0.2 25 -4 76 76 SW 5 7 30.42 1030 10 16 N/A
9:55 pm 21:55 Clear 32 -0.2 24 -4.5 73 73 N N/A 30.43 1030 10 16 N/A
10:15 pm 22:15 Clear 31 -0.8 23 -4.9 74 74 WSW 6 9 30.44 1031 10 16 N/A
10:35 pm 22:35 Clear 30 -1 24 -4.4 78 78 W 5 7 30.46 1031 10 16 N/A
10:55 pm 22:55 Clear 30 -0.9 24 -4.4 77 77 W 3 6 30.45 1031 10 16 N/A
11:15 pm 23:15 Clear 31 -0.7 25 -4.1 78 78 WNW 6 9 30.44 1031 10 16 N/A
11:35 pm 23:35 Clear 30 -1.3 24 -4.4 80 80 WNW 6 9 30.47 1032 10 16 N/A
11:55 pm 23:55 Clear 31 -0.5 24 -4.3 76 76 WNW 5 7 30.46 1032 10 16 N/A

Powered by AerisWeather